Time,TemperatureF,DewpointF,PressureIn,WindDirection,WindDirectionDegrees,WindSpeedMPH,WindSpeedGustMPH,Humidity,HourlyPrecipIn,Conditions,Clouds,dailyrainin,SolarRadiationWatts/m^2,SoftwareType,DateUTC
2013-12-09 00:00:00,25.5,24.3,29.99,ESE,120,3.0,4.0,95,0.00,,---,0.00,0.00,VWS V14.01,2013-12-09 05:00:00,
2013-12-09 00:01:00,25.5,24.3,29.98,ESE,120,3.0,3.0,95,0.00,,---,0.00,0.00,VWS V14.01,2013-12-09 05:01:00,
2013-12-09 00:02:00,25.5,24.3,29.98,ESE,120,2.0,3.0,95,0.00,,---,0.00,0.00,VWS V14.01,2013-12-09 05:02:00,
2013-12-09 00:07:00,25.5,24.3,29.98,ESE,120,4.0,4.0,95,0.00,,---,0.00,0.00,VWS V14.01,2013-12-09 05:07:00,
2013-12-09 00:11:00,25.6,24.4,29.97,ESE,120,2.0,4.0,95,0.00,,---,0.00,0.00,VWS V14.01,2013-12-09 05:11:00,
2013-12-09 00:16:00,25.6,24.4,29.97,ESE,120,3.0,4.0,95,0.00,,---,0.00,0.00,VWS V14.01,2013-12-09 05:16:00,
2013-12-09 00:21:00,25.6,24.4,29.96,ESE,120,3.0,5.0,95,0.00,,---,0.00,0.00,VWS V14.01,2013-12-09 05:21:00,
2013-12-09 00:26:00,25.6,24.4,29.96,ESE,120,1.0,5.0,95,0.00,,---,0.00,0.00,VWS V14.01,2013-12-09 05:26:00,
2013-12-09 00:30:00,25.7,24.5,29.96,ESE,120,0.0,5.0,95,0.00,,---,0.00,0.00,VWS V14.01,2013-12-09 05:30:00,
2013-12-09 00:31:00,25.7,24.5,29.96,ESE,120,0.0,1.0,95,0.00,,---,0.00,0.00,VWS V14.01,2013-12-09 05:31:00,
2013-12-09 00:36:00,25.7,24.5,29.96,ESE,120,0.0,1.0,95,0.00,,---,0.00,0.00,VWS V14.01,2013-12-09 05:36:00,
2013-12-09 00:41:00,25.8,24.6,29.96,ESE,121,1.0,2.0,95,0.00,,---,0.00,0.00,VWS V14.01,2013-12-09 05:41:00,
2013-12-09 00:46:00,25.8,24.6,29.96,ESE,121,0.0,2.0,95,0.00,,---,0.00,0.00,VWS V14.01,2013-12-09 05:46:00,
2013-12-09 00:51:00,25.8,24.6,29.95,ESE,121,0.0,2.0,95,0.00,,---,0.00,0.00,VWS V14.01,2013-12-09 05:51:00,
2013-12-09 00:56:00,25.9,24.7,29.95,ESE,121,0.0,2.0,95,0.00,,---,0.00,0.00,VWS V14.01,2013-12-09 05:56:00,
2013-12-09 01:00:00,25.9,24.7,29.95,ESE,121,0.0,2.0,95,0.00,,---,0.00,0.00,VWS V14.01,2013-12-09 06:00:00,
2013-12-09 01:01:00,25.9,24.7,29.95,ESE,121,0.0,1.0,95,0.00,,---,0.00,0.00,VWS V14.01,2013-12-09 06:01:00,
2013-12-09 01:06:00,26.0,24.8,29.95,ESE,121,1.0,2.0,95,0.00,,---,0.00,0.00,VWS V14.01,2013-12-09 06:06:00,
2013-12-09 01:11:00,26.0,24.8,29.95,ESE,121,0.0,2.0,95,0.00,,---,0.00,0.00,VWS V14.01,2013-12-09 06:11:00,
2013-12-09 01:16:00,26.0,24.8,29.95,ESE,121,0.0,3.0,95,0.00,,---,0.00,0.00,VWS V14.01,2013-12-09 06:16:00,
2013-12-09 01:21:00,26.0,24.8,29.95,ESE,121,0.0,3.0,95,0.00,,---,0.00,0.00,VWS V14.01,2013-12-09 06:21:00,
2013-12-09 01:26:00,26.1,24.9,29.95,ESE,121,1.0,3.0,95,0.00,,---,0.00,0.00,VWS V14.01,2013-12-09 06:26:00,
2013-12-09 01:30:00,26.1,24.9,29.95,ESE,121,2.0,3.0,95,0.00,,---,0.00,0.00,VWS V14.01,2013-12-09 06:30:00,
2013-12-09 01:31:00,26.1,24.9,29.95,ESE,121,0.0,2.0,95,0.00,,---,0.00,0.00,VWS V14.01,2013-12-09 06:31:00,
2013-12-09 01:36:00,26.1,24.9,29.94,ESE,121,1.0,3.0,95,0.00,,---,0.00,0.00,VWS V14.01,2013-12-09 06:36:00,
2013-12-09 01:41:00,26.2,25.0,29.94,SSW,198,0.0,5.0,95,0.00,,---,0.00,0.00,VWS V14.01,2013-12-09 06:41:00,
2013-12-09 01:46:00,26.2,25.0,29.94,SSW,198,0.0,5.0,95,0.00,,---,0.00,0.00,VWS V14.01,2013-12-09 06:46:00,
2013-12-09 01:51:00,26.2,25.0,29.94,SSW,198,1.0,5.0,95,0.00,,---,0.00,0.00,VWS V14.01,2013-12-09 06:51:00,
2013-12-09 01:56:00,26.3,25.1,29.93,SSW,198,2.0,5.0,95,0.00,,---,0.00,0.00,VWS V14.01,2013-12-09 06:56:00,
2013-12-09 02:00:00,26.3,25.1,29.93,SSW,192,0.0,6.0,95,0.00,,---,0.00,0.00,VWS V14.01,2013-12-09 07:00:00,
2013-12-09 02:01:00,26.3,25.1,29.93,SSW,197,3.0,5.0,95,0.00,,---,0.00,0.00,VWS V14.01,2013-12-09 07:01:00,
2013-12-09 02:06:00,26.3,25.1,29.94,SW,217,2.0,7.0,95,0.00,,---,0.00,0.00,VWS V14.01,2013-12-09 07:06:00,
2013-12-09 02:11:00,26.4,25.2,29.94,SSE,166,6.0,12.0,95,0.00,,---,0.00,0.00,VWS V14.01,2013-12-09 07:11:00,
2013-12-09 02:16:00,26.5,25.3,29.94,SW,222,3.0,12.0,95,0.00,,---,0.00,0.00,VWS V14.01,2013-12-09 07:16:00,
2013-12-09 02:21:00,26.5,25.3,29.94,SSW,205,7.0,12.0,95,0.00,,---,0.00,0.00,VWS V14.01,2013-12-09 07:21:00,
2013-12-09 02:26:00,26.6,25.4,29.94,WSW,238,5.0,12.0,95,0.00,,---,0.00,0.00,VWS V14.01,2013-12-09 07:26:00,
2013-12-09 02:30:00,26.7,25.5,29.94,WSW,240,7.0,12.0,95,0.00,,---,0.00,0.00,VWS V14.01,2013-12-09 07:30:00,
2013-12-09 02:31:00,26.7,25.5,29.95,WSW,255,7.0,13.0,95,0.00,,---,0.00,0.00,VWS V14.01,2013-12-09 07:31:00,
2013-12-09 02:36:00,26.8,25.6,29.94,SW,216,8.0,14.0,95,0.00,,---,0.00,0.00,VWS V14.01,2013-12-09 07:36:00,
2013-12-09 02:41:00,26.8,25.6,29.95,SSE,148,6.0,14.0,95,0.00,,---,0.00,0.00,VWS V14.01,2013-12-09 07:41:00,
2013-12-09 02:46:00,26.9,25.7,29.95,SSE,150,7.0,14.0,95,0.00,,---,0.00,0.00,VWS V14.01,2013-12-09 07:46:00,
2013-12-09 02:51:00,26.9,25.7,29.95,SSW,204,5.0,14.0,95,0.00,,---,0.00,0.00,VWS V14.01,2013-12-09 07:51:00,
2013-12-09 02:56:00,26.9,25.7,29.95,SW,218,5.0,15.0,95,0.00,,---,0.00,0.00,VWS V14.01,2013-12-09 07:56:00,
2013-12-09 03:00:00,26.9,25.7,29.95,SSW,210,2.0,15.0,95,0.00,,---,0.00,0.00,VWS V14.01,2013-12-09 08:00:00,
2013-12-09 03:01:00,26.9,25.4,29.95,West,273,4.0,10.0,94,0.00,,---,0.00,0.00,VWS V14.01,2013-12-09 08:01:00,
2013-12-09 03:06:00,26.9,25.4,29.95,South,189,7.0,10.0,94,0.00,,---,0.00,0.00,VWS V14.01,2013-12-09 08:06:00,
2013-12-09 03:11:00,26.8,25.3,29.96,SW,222,6.0,11.0,94,0.00,,---,0.00,0.00,VWS V14.01,2013-12-09 08:11:00,
2013-12-09 03:16:00,26.8,25.3,29.95,West,264,4.0,11.0,94,0.00,,---,0.00,0.00,VWS V14.01,2013-12-09 08:16:00,
2013-12-09 03:21:00,26.8,25.3,29.95,SW,228,5.0,14.0,94,0.00,,---,0.00,0.00,VWS V14.01,2013-12-09 08:21:00,
2013-12-09 03:26:00,26.8,25.3,29.95,SW,228,11.0,15.0,94,0.00,,---,0.00,0.00,VWS V14.01,2013-12-09 08:26:00,
2013-12-09 03:30:00,26.8,25.3,29.96,West,266,8.0,16.0,94,0.00,,---,0.00,0.00,VWS V14.01,2013-12-09 08:30:00,
2013-12-09 03:31:00,26.8,25.3,29.96,SW,231,9.0,16.0,94,0.00,,---,0.00,0.00,VWS V14.01,2013-12-09 08:31:00,
2013-12-09 03:36:00,26.8,25.3,29.96,WSW,249,8.0,16.0,94,0.00,,---,0.00,0.00,VWS V14.01,2013-12-09 08:36:00,
2013-12-09 03:41:00,26.7,25.2,29.95,South,177,3.0,16.0,94,0.00,,---,0.00,0.00,VWS V14.01,2013-12-09 08:41:00,
2013-12-09 03:46:00,26.7,25.0,29.95,SW,228,3.0,16.0,93,0.00,,---,0.00,0.00,VWS V14.01,2013-12-09 08:46:00,
2013-12-09 03:51:00,26.7,25.0,29.95,WSW,258,2.0,16.0,93,0.00,,---,0.00,0.00,VWS V14.01,2013-12-09 08:51:00,
2013-12-09 03:56:00,26.7,25.0,29.95,SW,221,3.0,16.0,93,0.00,,---,0.00,0.00,VWS V14.01,2013-12-09 08:56:00,
2013-12-09 04:00:00,26.7,25.0,29.95,SE,138,6.0,16.0,93,0.00,,---,0.00,0.00,VWS V14.01,2013-12-09 09:00:00,
2013-12-09 04:01:00,26.7,25.0,29.95,SW,223,4.0,6.0,93,0.00,,---,0.00,0.00,VWS V14.01,2013-12-09 09:01:00,
2013-12-09 04:06:00,26.7,25.0,29.95,SW,223,2.0,9.0,93,0.00,,---,0.00,0.00,VWS V14.01,2013-12-09 09:06:00,
2013-12-09 04:11:00,26.6,24.9,29.95,WSW,239,2.0,14.0,93,0.00,,---,0.00,0.00,VWS V14.01,2013-12-09 09:11:00,
2013-12-09 04:16:00,26.6,24.9,29.95,SW,220,5.0,14.0,93,0.00,,---,0.00,0.00,VWS V14.01,2013-12-09 09:16:00,
2013-12-09 04:21:00,26.6,24.9,29.95,SW,224,4.0,14.0,93,0.00,,---,0.00,0.00,VWS V14.01,2013-12-09 09:21:00,
2013-12-09 04:26:00,26.6,24.6,29.95,SW,217,12.0,16.0,92,0.00,,---,0.00,0.00,VWS V14.01,2013-12-09 09:26:00,
2013-12-09 04:30:00,26.6,24.6,29.96,SW,215,5.0,16.0,92,0.00,,---,0.00,0.00,VWS V14.01,2013-12-09 09:30:00,
2013-12-09 04:31:00,26.6,24.6,29.96,SW,220,3.0,6.0,92,0.00,,---,0.00,0.00,VWS V14.01,2013-12-09 09:31:00,
2013-12-09 04:36:00,26.6,24.6,29.95,SSW,206,5.0,14.0,92,0.00,,---,0.00,0.00,VWS V14.01,2013-12-09 09:36:00,
2013-12-09 04:41:00,26.5,24.5,29.95,SW,236,5.0,14.0,92,0.00,,---,0.00,0.00,VWS V14.01,2013-12-09 09:41:00,
2013-12-09 04:46:00,26.5,24.5,29.95,South,174,4.0,14.0,92,0.00,,---,0.00,0.00,VWS V14.01,2013-12-09 09:46:00,
2013-12-09 04:51:00,26.4,24.4,29.96,SW,226,5.0,14.0,92,0.00,,---,0.00,0.00,VWS V14.01,2013-12-09 09:51:00,
2013-12-09 04:56:00,26.4,24.1,29.95,SSW,202,7.0,14.0,91,0.00,,---,0.00,0.00,VWS V14.01,2013-12-09 09:56:00,
2013-12-09 05:00:00,26.3,24.0,29.95,SW,218,4.0,14.0,91,0.00,,---,0.00,0.00,VWS V14.01,2013-12-09 10:00:00,
2013-12-09 05:01:00,26.3,24.0,29.95,WSW,257,6.0,7.0,91,0.00,,---,0.00,0.00,VWS V14.01,2013-12-09 10:01:00,
2013-12-09 05:06:00,26.2,23.9,29.96,WSW,240,5.0,13.0,91,0.00,,---,0.00,0.00,VWS V14.01,2013-12-09 10:06:00,
2013-12-09 05:11:00,26.1,23.8,29.96,SW,227,6.0,14.0,91,0.00,,---,0.00,0.00,VWS V14.01,2013-12-09 10:11:00,
2013-12-09 05:16:00,26.1,23.8,29.96,WSW,248,8.0,14.0,91,0.00,,---,0.00,0.00,VWS V14.01,2013-12-09 10:16:00,
2013-12-09 05:21:00,26.0,23.7,29.96,SSW,200,4.0,14.0,91,0.00,,---,0.00,0.00,VWS V14.01,2013-12-09 10:21:00,
2013-12-09 05:26:00,26.0,23.7,29.95,SSW,205,6.0,14.0,91,0.00,,---,0.00,0.00,VWS V14.01,2013-12-09 10:26:00,
2013-12-09 05:30:00,26.0,23.7,29.96,SW,222,3.0,14.0,91,0.00,,---,0.00,0.00,VWS V14.01,2013-12-09 10:30:00,
2013-12-09 05:31:00,26.0,23.7,29.96,SW,221,4.0,5.0,91,0.00,,---,0.00,0.00,VWS V14.01,2013-12-09 10:31:00,
2013-12-09 06:00:00,25.6,23.6,29.98,SW,225,5.0,13.0,92,0.00,,---,0.00,0.00,VWS V14.01,2013-12-09 11:00:00,
2013-12-09 06:30:00,25.3,23.3,29.98,SSW,202,5.0,16.0,92,0.00,,---,0.00,0.00,VWS V14.01,2013-12-09 11:30:00,
2013-12-09 07:00:00,25.1,22.9,29.99,SW,225,7.0,17.0,91,0.00,,---,0.00,0.00,VWS V14.01,2013-12-09 12:00:00,
2013-12-09 07:30:00,24.8,22.3,30.00,SW,225,7.0,18.0,90,0.00,,---,0.00,0.00,VWS V14.01,2013-12-09 12:30:00,
2013-12-09 08:00:00,24.7,21.9,30.01,SW,225,7.0,21.0,89,0.00,,---,0.00,0.00,VWS V14.01,2013-12-09 13:00:00,
2013-12-09 08:30:00,24.5,21.5,30.02,SW,225,7.0,17.0,88,0.00,,---,0.00,4.00,VWS V14.01,2013-12-09 13:30:00,
2013-12-09 09:00:00,24.3,21.3,30.04,SW,225,5.0,14.0,88,0.00,,---,0.00,17.00,VWS V14.01,2013-12-09 14:00:00,
2013-12-09 09:30:00,24.3,21.3,30.06,SSW,202,5.0,13.0,88,0.00,,---,0.00,32.00,VWS V14.01,2013-12-09 14:30:00,
2013-12-09 10:00:00,23.9,21.1,30.08,SSW,202,6.0,16.0,89,0.00,,---,0.00,38.00,VWS V14.01,2013-12-09 15:00:00,
2013-12-09 10:30:00,23.9,21.4,30.09,SW,225,6.0,15.0,90,0.00,,---,0.00,81.00,VWS V14.01,2013-12-09 15:30:00,
2013-12-09 11:00:00,24.4,21.4,30.08,SW,225,7.0,18.0,88,0.00,,---,0.00,149.00,VWS V14.01,2013-12-09 16:00:00,
2013-12-09 11:30:00,24.3,20.7,30.08,SW,225,6.0,15.0,86,0.00,,---,0.00,155.00,VWS V14.01,2013-12-09 16:30:00,
2013-12-09 12:00:00,23.9,20.6,30.07,SW,225,6.0,16.0,87,0.00,,---,0.00,174.00,VWS V14.01,2013-12-09 17:00:00,
2013-12-09 12:30:00,24.5,20.9,30.09,SSW,202,5.0,13.0,86,0.00,,---,0.00,174.00,VWS V14.01,2013-12-09 17:30:00,
2013-12-09 13:00:00,23.9,20.3,30.10,SSW,202,5.0,20.0,86,0.00,,---,0.00,196.00,VWS V14.01,2013-12-09 18:00:00,
2013-12-09 13:30:00,23.7,18.5,30.12,SSW,202,7.0,18.0,80,0.00,,---,0.00,280.00,VWS V14.01,2013-12-09 18:30:00,
2013-12-09 14:00:00,23.5,18.0,30.13,SSW,202,6.0,16.0,79,0.00,,---,0.00,219.00,VWS V14.01,2013-12-09 19:00:00,
2013-12-09 14:30:00,22.3,16.2,30.13,SW,225,9.0,20.0,77,0.00,,---,0.00,219.00,VWS V14.01,2013-12-09 19:30:00,
2013-12-09 15:00:00,22.0,16.2,30.13,SSW,202,8.0,17.0,78,0.00,,---,0.00,152.00,VWS V14.01,2013-12-09 20:00:00,
2013-12-09 15:30:00,21.7,15.6,30.14,SW,225,8.0,22.0,77,0.00,,---,0.00,119.00,VWS V14.01,2013-12-09 20:30:00,
2013-12-09 16:00:00,21.5,15.1,30.16,SW,225,8.0,17.0,76,0.00,,---,0.00,104.00,VWS V14.01,2013-12-09 21:00:00,
2013-12-09 16:30:00,21.2,15.1,30.16,SW,225,8.0,18.0,77,0.00,,---,0.00,66.00,VWS V14.01,2013-12-09 21:30:00,
2013-12-09 17:00:00,20.6,15.1,30.16,SW,225,7.0,17.0,79,0.00,,---,0.00,26.00,VWS V14.01,2013-12-09 22:00:00,
2013-12-09 17:30:00,20.2,14.2,30.16,SW,225,6.0,14.0,77,0.00,,---,0.00,2.00,VWS V14.01,2013-12-09 22:30:00,
2013-12-09 18:00:00,20.1,12.9,30.15,WSW,248,7.0,17.0,73,0.00,,---,0.00,0.00,VWS V14.01,2013-12-09 23:00:00,
2013-12-09 18:30:00,19.7,11.8,30.16,SW,225,5.0,12.0,71,0.00,,---,0.00,0.00,VWS V14.01,2013-12-09 23:30:00,
2013-12-09 19:00:00,19.3,13.0,30.17,SSW,202,4.0,11.0,76,0.00,,---,0.00,0.00,VWS V14.01,2013-12-10 00:00:00,
2013-12-09 19:30:00,19.1,13.1,30.18,SW,225,5.0,14.0,77,0.00,,---,0.00,0.00,VWS V14.01,2013-12-10 00:30:00,
2013-12-09 20:00:00,18.8,13.1,30.19,SW,225,5.0,14.0,78,0.00,,---,0.00,0.00,VWS V14.01,2013-12-10 01:00:00,
2013-12-09 20:30:00,18.4,12.7,30.19,SW,225,5.0,14.0,78,0.00,,---,0.00,0.00,VWS V14.01,2013-12-10 01:30:00,
2013-12-09 21:00:00,18.1,12.1,30.18,SW,225,5.0,12.0,77,0.00,,---,0.00,0.00,VWS V14.01,2013-12-10 02:00:00,
2013-12-09 21:30:00,18.1,11.8,30.18,WSW,248,7.0,14.0,76,0.00,,---,0.00,0.00,VWS V14.01,2013-12-10 02:30:00,
2013-12-09 22:00:00,17.2,10.6,30.19,SW,225,5.0,13.0,75,0.00,,---,0.00,0.00,VWS V14.01,2013-12-10 03:00:00,
2013-12-09 22:30:00,16.6,9.8,30.18,SW,225,5.0,12.0,74,0.00,,---,0.00,0.00,VWS V14.01,2013-12-10 03:30:00,
2013-12-09 23:00:00,16.1,9.3,30.18,SW,225,4.0,11.0,74,0.00,,---,0.00,0.00,VWS V14.01,2013-12-10 04:00:00,
2013-12-09 23:30:00,15.9,9.1,30.18,WSW,248,4.0,9.0,74,0.00,,---,0.00,0.00,VWS V14.01,2013-12-10 04:30:00,